[[{"header":{"parameterUnit":"m.s-1","parameterCategory":1,"la1":30.2991,"la2":30.254,"lo1":-89.0895,"lo2":-89.0444,"dy":0.0017,"dx":0.0017,"nx":28,"ny":28,"refTime":"2024-04-11T21:00:00:Z","depth":0,"parameterNumber":2,"parameterNumberName":"U-component_of_WINDS"},"data":[0,0,0,0,0,0,0,0,0,0,0,0,0,0,0,0,0,0,0,0,0,0,0,0,0,0,0,0,0,0,0,0,0,0,0,0,0,0,0,0,0,0,0,0,0,0,0,0,0,0,0,0,0,0,0,0,0,0,8.784,8.7841,0,8.7951,8.7953,8.7954,8.7839,8.7835,8.7831,8.7826,8.7943,8.795,8.7957,0,0,0,0,0,0,0,0,0,0,0,0,0,8.7532,8.7538,8.784,8.7841,8.7843,8.7951,8.7953,8.7954,8.784,8.7835,8.7829,8.7824,8.7941,8.7949,8.7958,0,0,0,0,0,0,0,0,0,0,0,0,0,8.7657,8.7541,8.784,8.7799,8.7796,8.7951,8.7953,8.7955,8.7841,8.7835,8.7828,8.7822,8.7938,8.7948,8.7959,8.816,0,0,8.7993,8.7997,0,0,0,0,0,0,0,0,8.765,8.7669,8.7804,8.7802,8.7799,8.7875,8.7887,8.8024,8.7843,8.7824,8.7826,8.7818,8.7926,8.7937,8.7973,8.8166,8.8171,8.7994,8.8,8.8005,8.8008,0,0,0,0,0,0,0,8.7642,8.7663,8.7884,8.7806,8.7803,8.7776,8.7787,8.7912,8.7911,8.7825,8.7817,8.7832,8.7924,8.7963,8.7975,8.8173,8.7993,8.8003,8.801,8.8014,8.8538,8.8545,0,0,0,0,0,0,8.7637,8.7657,8.788,8.7887,8.7707,8.7787,8.7799,8.7857,8.791,8.7911,8.7838,8.7826,8.7947,8.7962,8.7979,8.8218,8.8005,8.8015,8.8021,8.8531,8.8539,8.8547,0,0,0,0,0,0,8.7631,8.7658,8.7876,8.777,8.7796,8.78,8.7866,8.7863,8.7902,8.7919,8.7918,8.7878,8.7943,8.7963,8.8116,8.8221,8.802,8.803,8.8522,8.8533,8.8543,8.8699,0,0,0,0,0,0,8.7623,8.7657,8.7732,8.7772,8.7802,8.8011,8.7873,8.787,8.7921,8.7907,8.7956,8.7958,8.7939,8.8101,8.8127,8.8232,8.8038,8.8512,8.8527,8.854,8.8685,8.8714,8.874,0,0,0,0,0,8.7612,8.7772,8.7737,8.7764,8.7896,8.8017,8.8034,8.8008,8.793,8.8006,8.8017,8.7957,8.8205,8.8117,8.8146,8.8256,8.8506,8.8523,8.8539,8.8673,8.8708,8.8739,0,0,0,0,0,0,8.7744,8.7776,8.7737,8.7915,8.7964,8.7998,8.8093,8.8047,8.812,8.8104,8.807,8.8082,8.8245,8.8265,8.8167,8.8454,8.8343,8.8366,8.8435,8.8469,8.8496,8.8487,8.8047,0,0,0,0,0,8.7794,8.7889,8.7912,8.8066,8.8093,8.809,8.8141,8.8117,8.8167,8.8188,8.821,8.8262,8.8351,8.8411,8.8495,8.8688,8.8697,8.8778,8.8805,8.8827,8.8848,8.8952,8.8989,8.8602,8.8602,8.8602,0,0,8.7898,8.7927,8.7989,8.8094,8.8129,8.8229,8.8108,8.8219,8.8293,8.8205,8.835,8.8369,8.8425,8.8599,8.8677,8.8621,8.8957,8.8848,8.8866,8.8875,8.8973,8.901,8.9042,8.8613,8.8611,8.8609,0,0,8.8138,8.8169,8.8302,8.834,8.8395,8.8392,8.8424,8.8465,8.8474,8.8619,8.8556,8.8645,8.88,8.8842,8.8884,8.9143,8.909,8.9171,8.9314,8.9417,8.9447,8.9474,8.9567,8.9601,8.9192,8.9192,8.9192,0,8.826,8.8407,8.8376,8.8492,8.8541,8.8465,8.86,8.8639,8.8719,8.8755,8.8692,8.8886,8.8918,8.9101,8.9165,8.9201,8.9238,8.9165,8.9445,8.9472,8.9496,8.9585,8.962,8.9202,8.9201,8.92,8.9199,0,8.8556,8.8659,8.876,8.8839,8.8899,8.9024,8.9012,8.9077,8.9049,8.9053,8.9203,8.9239,8.9329,8.9371,8.9344,8.9552,8.9516,8.945,8.9337,8.9543,8.9626,8.9659,8.9215,8.9212,8.9209,8.9207,0,0,8.8881,8.8942,8.898,8.9015,8.9071,8.9151,8.9273,8.9361,8.9418,8.9476,8.9578,8.9712,8.9652,8.97,8.9677,8.9768,8.9971,8.969,8.9691,8.9742,9.0203,9.0253,9.0292,8.9937,8.9943,8.9948,9.0199,0,8.9123,8.9334,8.9311,8.9513,8.9609,8.954,8.9646,8.9693,8.9701,8.9784,8.9793,8.9888,8.9801,8.983,8.9916,8.9928,9.0064,8.991,9.0033,9.0038,9.0021,9.0335,9.0387,9.0622,9.0231,9.0236,9.024,0,8.9434,8.9503,8.9715,8.9757,8.9796,8.9893,8.9972,9.0052,9.0104,9.0104,9.0158,9.012,9.0245,9.013,9.0301,9.0198,9.0247,9.0261,9.0269,9.028,9.0151,9.0354,9.0696,9.0732,9.029,9.0286,9.0283,0,8.9651,8.9797,8.9943,8.9975,9.0028,9.0098,9.0124,9.0169,9.0224,9.0293,9.0328,9.0412,9.0458,9.0524,9.0511,9.0428,9.0687,9.057,9.069,9.0691,9.0747,9.0744,9.1102,9.0779,9.0779,9.0778,9.0777,0,8.9924,9.0057,9.0041,9.0131,9.0278,9.025,9.0397,9.0413,9.0455,9.0548,9.0493,9.0582,9.0558,9.0646,9.0637,9.0781,9.0802,9.0806,9.0801,9.0811,9.081,9.0842,9.0825,9.0788,9.0785,9.0784,9.0782,0,9.0192,9.0186,9.0341,9.0379,9.0391,9.0498,9.0531,9.0616,9.0619,9.0738,9.0764,9.077,9.0871,9.0864,9.0978,9.0971,9.1149,9.1126,9.1132,9.1127,9.1247,9.1236,9.1638,9.169,9.1334,9.1337,9.134,0,9.0366,9.0466,9.0515,9.0573,9.0603,9.0697,9.0752,9.073,9.079,9.0858,9.0936,9.1031,9.1106,9.1271,9.1286,9.1374,9.1352,9.1487,9.1365,9.1371,9.1354,9.1349,9.1359,9.1511,9.1515,9.1518,9.1521,0,9.0677,9.067,9.0751,9.0833,9.0901,9.0964,9.1022,9.1073,9.1056,9.1127,9.1229,9.1287,9.1403,9.15,9.1583,9.161,9.1564,9.1559,9.1592,9.1602,9.1601,9.1604,9.1197,9.155,9.1547,9.1545,9.1544,9.1542,9.0904,9.099,9.1038,9.1131,9.1172,9.1228,9.131,9.1323,9.1408,9.15,9.1482,9.1597,9.1648,9.1755,9.1791,9.1881,9.1833,9.188,9.1892,9.1904,9.1917,9.1587,9.1896,9.1895,9.1895,9.1894,9.1893,0,9.1212,9.124,9.1326,9.1408,9.1482,9.1431,9.1493,9.1558,9.166,9.1711,9.1786,9.1904,9.1997,9.202,9.211,9.2178,9.2159,9.2203,9.2197,9.2205,9.1955,9.1918,9.2216,9.2216,9.2216,9.2216,9.2216,9.2216,9.1382,9.1525,9.1524,9.1688,9.1714,9.1826,9.1866,9.1917,9.1958,9.2092,9.2169,9.2183,9.2223,9.2315,9.2399,9.2404,9.2439,9.2492,9.2488,9.2254,9.2222,9.2191,9.2156,9.25,9.25,9.2729,9.2731,9.2733]},{"header":{"parameterUnit":"m.s-1","parameterCategory":1,"la1":30.2991,"la2":30.254,"lo1":-89.0895,"lo2":-89.0444,"dy":0.0017,"dx":0.0017,"nx":28,"ny":28,"refTime":"2024-04-11T21:00:00:Z","depth":0,"parameterNumber":3,"parameterNumberName":"V-component_of_WINDS"},"data":[0,0,0,0,0,0,0,0,0,0,0,0,0,0,0,0,0,0,0,0,0,0,0,0,0,0,0,0,0,0,0,0,0,0,0,0,0,0,0,0,0,0,0,0,0,0,0,0,0,0,0,0,0,0,0,0,0,0,0.7764,0.7764,0,0.7808,0.7808,0.7809,0.7819,0.7819,0.7818,0.7818,0.7863,0.7864,0.7865,0,0,0,0,0,0,0,0,0,0,0,0,0,0.7687,0.7688,0.7764,0.7764,0.7765,0.7807,0.7808,0.7809,0.7819,0.7819,0.7818,0.7818,0.7862,0.7864,0.7866,0,0,0,0,0,0,0,0,0,0,0,0,0,0.7724,0.7688,0.7764,0.7775,0.7777,0.7807,0.7808,0.7809,0.7819,0.7819,0.7818,0.7818,0.7861,0.7864,0.7866,0.7888,0,0,0.7872,0.7873,0,0,0,0,0,0,0,0,0.7722,0.7727,0.7773,0.7774,0.7776,0.7807,0.7797,0.7835,0.7819,0.7803,0.7818,0.7818,0.7844,0.7848,0.7857,0.789,0.7892,0.7873,0.7874,0.7875,0.7875,0,0,0,0,0,0,0,0.7719,0.7725,0.7781,0.7773,0.7775,0.7777,0.7782,0.7804,0.7826,0.7804,0.7805,0.781,0.7845,0.7855,0.7858,0.7893,0.7873,0.7874,0.7876,0.7877,0.7944,0.7944,0,0,0,0,0,0,0.7715,0.7723,0.778,0.7782,0.7747,0.7779,0.7785,0.7798,0.7825,0.7829,0.7811,0.7811,0.7852,0.7856,0.786,0.7887,0.7875,0.7877,0.7878,0.7943,0.7944,0.7944,0,0,0,0,0,0,0.7713,0.772,0.7778,0.7753,0.776,0.7781,0.7796,0.7799,0.7809,0.783,0.7834,0.7817,0.7851,0.7857,0.7881,0.7889,0.7878,0.788,0.7943,0.7943,0.7944,0.7941,0,0,0,0,0,0,0.7711,0.7719,0.7729,0.7753,0.7762,0.7798,0.7796,0.78,0.7813,0.7813,0.7837,0.7841,0.7851,0.7877,0.7883,0.7891,0.7882,0.7942,0.7943,0.7944,0.7941,0.7942,0.7943,0,0,0,0,0,0.7708,0.7727,0.7729,0.7736,0.7774,0.7799,0.7804,0.7816,0.7813,0.7822,0.7836,0.784,0.7886,0.788,0.7886,0.7895,0.7942,0.7943,0.7944,0.7941,0.7942,0.7943,0,0,0,0,0,0,0.7703,0.773,0.7733,0.776,0.7777,0.7801,0.7813,0.7817,0.7836,0.7835,0.7849,0.7855,0.7877,0.7888,0.788,0.7917,0.7914,0.7916,0.7909,0.7911,0.7912,0.7909,0.7883,0,0,0,0,0,0.7705,0.7724,0.7746,0.7767,0.7776,0.7793,0.7804,0.7812,0.783,0.7837,0.7852,0.7869,0.7888,0.79,0.7918,0.7942,0.7947,0.7951,0.7952,0.7953,0.7955,0.7967,0.7969,0.7948,0.7948,0.7948,0,0,0.771,0.7727,0.7738,0.7767,0.7781,0.7799,0.7799,0.7818,0.7832,0.784,0.7863,0.7875,0.7894,0.7918,0.7929,0.7928,0.7962,0.7954,0.7955,0.7957,0.7969,0.7971,0.7972,0.7949,0.7948,0.7948,0,0,0.7727,0.7742,0.7761,0.7774,0.7795,0.7806,0.781,0.7833,0.7841,0.7864,0.787,0.7885,0.7917,0.7931,0.7942,0.7961,0.7965,0.7966,0.7972,0.7983,0.7985,0.7987,0.7993,0.7995,0.7968,0.7968,0.7968,0,0.773,0.7758,0.777,0.7789,0.7801,0.7808,0.7827,0.7839,0.7865,0.7873,0.7871,0.791,0.7924,0.795,0.7954,0.7963,0.7968,0.7964,0.7984,0.7986,0.7987,0.7993,0.7996,0.7968,0.7968,0.7968,0.7968,0,0.776,0.7779,0.7792,0.7816,0.7829,0.7848,0.7861,0.7873,0.7879,0.7889,0.7912,0.7928,0.7949,0.7956,0.7962,0.7982,0.7981,0.7981,0.7978,0.7989,0.7995,0.7997,0.7968,0.7968,0.7968,0.7968,0,0,0.7778,0.7806,0.7811,0.7821,0.7843,0.7858,0.7876,0.7896,0.7905,0.7922,0.7937,0.7962,0.7962,0.7975,0.7982,0.7992,0.8005,0.7991,0.7992,0.7993,0.8027,0.8027,0.8029,0.8007,0.8008,0.8008,0.8025,0,0.7798,0.7831,0.7841,0.7868,0.7885,0.7891,0.7906,0.7921,0.793,0.7945,0.7956,0.7973,0.7972,0.7979,0.799,0.8001,0.8012,0.8,0.8021,0.8021,0.8016,0.8033,0.8033,0.8048,0.8028,0.8028,0.8028,0,0.7826,0.7843,0.7871,0.789,0.7897,0.7911,0.7929,0.7944,0.796,0.7966,0.7978,0.7984,0.8002,0.7997,0.8021,0.8012,0.8021,0.8028,0.8028,0.8031,0.8026,0.8036,0.8054,0.8056,0.8032,0.8032,0.8032,0,0.7835,0.7865,0.7885,0.7894,0.7916,0.7925,0.7935,0.7951,0.7961,0.7977,0.7984,0.8001,0.8011,0.8023,0.8033,0.8029,0.8056,0.8052,0.8061,0.806,0.8067,0.8067,0.8087,0.8072,0.8072,0.8072,0.8072,0,0.7857,0.7874,0.789,0.7903,0.7921,0.7932,0.795,0.7959,0.7973,0.7987,0.7993,0.8005,0.8018,0.8032,0.8039,0.8057,0.8061,0.8066,0.8068,0.8066,0.8065,0.8072,0.8072,0.8073,0.8072,0.8072,0.8072,0,0.7871,0.7883,0.7905,0.7924,0.7928,0.7941,0.7957,0.7969,0.7977,0.7995,0.7999,0.8013,0.803,0.804,0.8062,0.8067,0.8086,0.8088,0.8081,0.8082,0.809,0.8089,0.8115,0.8119,0.8102,0.8102,0.8102,0,0.7885,0.7898,0.7917,0.7927,0.7936,0.7952,0.7963,0.7972,0.7983,0.8001,0.801,0.8027,0.8041,0.8067,0.8079,0.8094,0.8096,0.8104,0.8099,0.8096,0.8096,0.8095,0.8096,0.8106,0.8106,0.8106,0.8106,0,0.7907,0.7911,0.7926,0.7943,0.7955,0.7969,0.7982,0.799,0.8001,0.8013,0.803,0.804,0.8061,0.8077,0.8094,0.8103,0.8106,0.8107,0.811,0.8108,0.8104,0.8106,0.8084,0.8107,0.8107,0.8107,0.8107,0.8107,0.7921,0.7933,0.7947,0.7963,0.7974,0.7986,0.7998,0.8007,0.8022,0.8039,0.8044,0.8061,0.8075,0.8097,0.8106,0.8119,0.8118,0.8122,0.8123,0.8124,0.8124,0.8101,0.8122,0.8122,0.8122,0.8122,0.8122,0,0.7943,0.7953,0.7967,0.7985,0.7997,0.7999,0.8013,0.8023,0.8038,0.8051,0.8064,0.8082,0.8097,0.8109,0.8124,0.8132,0.8134,0.8136,0.8136,0.8138,0.8124,0.812,0.8134,0.8134,0.8134,0.8134,0.8134,0.8134,0.7956,0.7975,0.7981,0.8004,0.8013,0.803,0.8038,0.8049,0.8058,0.8079,0.8091,0.8098,0.811,0.8126,0.8139,0.8142,0.8148,0.8149,0.8152,0.814,0.8139,0.8137,0.8134,0.815,0.815,0.8165,0.8165,0.8165]}]]